Flag for United Kingdom Weather past 2 weeks in Loughton, England, United Kingdom

Now
37 °F

Chilly.


Feels Like: 33 °F
Forecast: 36 / 46 °F
Wind: 6 mph from Southwest

Location: Gravesend-Broadness

Current Time: Jan 25, 2015 at 10:21:25 AM

Latest Report: Jan 25, 2015 at 9:00 AM


Visibility: N/A

Pressure: 30.45 "Hg

Humidity: 85%

Dew point: 33 °F

Location of LoughtonLocation

Historic Weather in Loughton — Graph

°F

Loughton temperature yesterday

Maximum temperature yesterday: 46 °F (at 2:00 AM)
Minimum temperature yesterday: 37 °F (at 11:00 PM)
Average temperature yesterday: 42 °F

Past Weeks' High & Low Weather Summary

 TemperatureHumidityPressure
High57 °F (Jan 10, 11:00 AM)98% (Jan 20, 10:00 AM)30.47 "Hg (Jan 20, 10:00 AM)
Low23 °F (Jan 20, 5:00 AM)52% (Jan 10, 5:00 PM)29.18 "Hg (Jan 15, 3:00 AM)
Average40 °F82%29.88 "Hg
* Reported Jan 10 9:00 AM — Jan 25 9:00 AM, Loughton, Weather by CustomWeather, © 2014

Note: Actual official high and low records may vary slightly from our data, if they occured in-between our weather recording intervals... More about our weather records

Advertising

Loughton weather history for previous 24 hours

 ConditionsComfort  
Time TempWeatherWind HumidityBarometerVisibility
9:00 AM
Jan 25
37 °FChilly.6 mph85%30.45 "HgN/A
8:00 AM37 °FChilly.8 mph86%30.46 "HgN/A
7:00 AM37 °FChilly.8 mph88%30.47 "HgN/A
6:00 AM36 °FChilly.8 mph88%30.47 "HgN/A
5:00 AM36 °FChilly.8 mph88%30.46 "HgN/A
4:00 AM36 °FChilly.12 mph87%30.45 "HgN/A
2:00 AM36 °FChilly.9 mph87%30.46 "HgN/A
1:00 AM36 °FChilly.8 mph87%30.45 "HgN/A
12:00 AM37 °FChilly.9 mph85%30.45 "HgN/A
11:00 PM
Jan 24
37 °FChilly.10 mph83%30.46 "HgN/A
10:00 PM38 °FChilly.10 mph82%30.45 "HgN/A
8:00 PM40 °FChilly.8 mph79%30.43 "HgN/A
7:00 PM40 °FChilly.8 mph80%30.42 "HgN/A
6:00 PM41 °FQuite cool.8 mph76%30.41 "HgN/A
5:00 PM42 °FQuite cool.10 mph73%30.38 "HgN/A
4:00 PM44 °FQuite cool.12 mph64%30.36 "HgN/A
3:00 PM45 °FCool.13 mph62%30.33 "HgN/A
2:00 PM44 °FQuite cool.14 mph64%30.32 "HgN/A
1:00 PM44 °FQuite cool.13 mph68%30.31 "HgN/A
12:00 PM44 °FQuite cool.15 mph71%30.29 "HgN/A
11:00 AM42 °FQuite cool.14 mph75%30.28 "HgN/A
10:00 AM40 °FQuite cool.13 mph80%30.25 "HgN/A
Weather by CustomWeather, © 2014

See weather overviewHow to use our weather pages